Location: Newark
(29.9790°N, 31.1340°E)
Time: 21:33:09
(UTC+00:00)

Envisat - Visible Passes

Search period start: 06 December 2019 00:00
Search period end: 16 December 2019 00:00
Orbit: 764 x 766 km, 98.1° (Epoch: 06 December)

Date Brightness Start Highest point End Pass type
(mag) Time Alt. Az. Time Alt. Az. Time Alt. Az.
06 Dec 5.3 03:54:44 10° NE 03:59:05 28° E 04:03:24 10° SSE visible
06 Dec 4.7 16:41:58 10° SSW 16:46:31 34° W 16:51:06 10° NNW visible
07 Dec 6.4 03:20:49 10° ENE 03:22:04 11° E 03:23:19 10° ESE visible
07 Dec 3.0 16:04:39 10° SSE 16:09:43 85° W 16:14:49 10° NNW visible
08 Dec 3.4 15:28:25 10° SE 15:33:05 38° ENE 15:37:45 10° N visible
08 Dec 5.7 17:08:47 10° SW 17:12:09 18° W 17:15:31 10° NW visible
09 Dec 5.8 03:43:53 10° NE 03:47:45 22° E 03:51:35 10° SE visible
09 Dec 4.2 16:30:24 10° S 16:35:13 44° W 16:40:04 10° NNW visible
10 Dec 2.9 15:53:25 10° SSE 15:58:27 74° ENE 16:03:32 10° N visible
11 Dec 4.6 04:08:34 10° NNE 04:13:21 41° E 04:18:06 10° S visible
11 Dec 3.8 15:17:31 10° SE 15:21:52 30° ENE 15:26:14 10° NNE visible
11 Dec 5.3 16:56:49 10° SSW 17:00:48 23° W 17:04:49 10° NW visible
12 Dec 6.0 03:33:14 10° NE 03:36:24 16° E 03:39:33 10° SE visible
12 Dec 3.6 16:18:57 10° S 16:23:55 58° W 16:28:56 10° NNW visible
13 Dec 3.1 15:42:16 10° SSE 15:47:13 56° ENE 15:52:10 10° N visible
13 Dec 6.1 17:24:38 10° WSW 17:26:28 12° W 17:28:19 10° WNW visible
14 Dec 5.1 03:57:32 10° NE 04:02:02 31° E 04:06:29 10° SSE visible
14 Dec 4.9 16:45:03 10° SSW 16:49:28 30° W 16:53:56 10° NW visible
15 Dec 6.2 03:23:01 10° ENE 03:25:02 12° E 03:27:04 10° ESE visible
15 Dec 3.1 16:07:35 10° S 16:12:39 77° WSW 16:17:43 10° NNW visible
